H1 CPF 2 NER 2021 7 26 9 207 01 glonass107 H2 0706501 9107 32393 2021 7 26 0 0 0 2021 7 29 23 45 0 900 1 1 0 0 0 1 H9 10 0 59421 0.00000 0 -9987152.755 -5070805.159 -22925867.688 10 0 59421 900.00000 0 -8289215.833 -7335377.292 -22990324.728 10 0 59421 1800.00000 0 -6770185.933 -9700437.931 -22608739.706 10 0 59421 2700.00000 0 -5462213.735 -12104590.970 -21788525.277 10 0 59421 3600.00000 0 -4385915.772 -14482375.580 -20545590.063 10 0 59421 4500.00000 0 -3549698.231 -16766812.840 -18904032.357 10 0 59421 5400.00000 0 -2949604.297 -18892030.675 -16895676.707 10 0 59421 6300.00000 0 -2569690.638 -20795858.789 -14559461.733 10 0 59421 7200.00000 0 -2382916.539 -22422286.112 -11940690.419 10 0 59421 8100.00000 0 -2352507.724 -23723678.845 -9090156.676 10 0 59421 9000.00000 0 -2433737.055 -24662666.766 -6063164.472 10 0 59421 9900.00000 0 -2576046.745 -25213618.943 -2918458.124 10 0 59421 10800.00000 0 -2725422.164 -25363647.069 282915.820 10 0 59421 11700.00000 0 -2826916.595 -25113094.116 3478793.105 10 0 59421 12600.00000 0 -2827219.741 -24475487.549 6607099.509 10 0 59421 13500.00000 0 -2677160.722 -23476958.806 9607058.123 10 0 59421 14400.00000 0 -2334038.936 -22155153.129 12420372.353 10 0 59421 15300.00000 0 -1763683.330 -20557675.336 14992361.223 10 0 59421 16200.00000 0 -942151.993 -18740136.615 17273024.607 10 0 59421 17100.00000 0 143000.896 -16763884.145 19218017.470 10 0 59421 18000.00000 0 1491945.437 -14693508.654 20789513.955 10 0 59421 18900.00000 0 3092317.936 -12594234.200 21956944.562 10 0 59421 19800.00000 0 4919496.671 -10529299.249 22697592.124 10 0 59421 20700.00000 0 6937401.281 -8557438.394 22997035.045 10 0 59421 21600.00000 0 9099783.675 -6730569.651 22849429.307 10 0 59421 22500.00000 0 11351957.678 -5091783.499 22257623.761 10 0 59421 23400.00000 0 13632896.115 -3673717.199 21233106.377 10 0 59421 24300.00000 0 15877608.611 -2497381.657 19795782.388 10 0 59421 25200.00000 0 18019701.442 -1571489.039 17973588.348 10 0 59421 26100.00000 0 19994012.895 -892308.454 15801949.395 10 0 59421 27000.00000 0 21739214.220 -444054.656 13323089.994 10 0 59421 27900.00000 0 23200267.535 -199792.314 10585211.393 10 0 59421 28800.00000 0 24330637.696 -122816.665 7641551.781 10 0 59421 29700.00000 0 25094165.465 -168451.107 4549347.574 10 0 59421 30600.00000 0 25466523.414 -286184.677 1368716.285 10 0 59421 31500.00000 0 25436193.506 -422057.934 -1838516.722 10 0 59421 32400.00000 0 25004925.549 -521195.251 -5010024.243 10 0 59421 33300.00000 0 24187657.585 -530375.359 -8084192.000 10 0 59421 34200.00000 0 23011902.032 -400530.530 -11001317.890 10 0 59421 35100.00000 0 21516623.883 -89067.962 -13704772.067 10 0 59421 36000.00000 0 19750658.551 438085.407 -16142095.141 10 0 59421 36900.00000 0 17770736.198 1204801.430 -18266013.178 10 0 59421 37800.00000 0 15639195.543 2223504.025 -20035350.122 10 0 59421 38700.00000 0 13421482.855 3494410.102 -21415820.570 10 0 59421 39600.00000 0 11183540.455 5005290.542 -22380688.133 10 0 59421 40500.00000 0 8989193.200 6731761.866 -22911277.499 10 0 59421 41400.00000 0 6897641.105 8638097.159 -22997331.037 10 0 59421 42300.00000 0 4961161.648 10678523.178 -22637203.658 10 0 59421 43200.00000 0 3223116.205 12798950.533 -21837892.626 10 0 59421 44100.00000 0 1716342.414 14939065.860 -20614901.928 10 0 59421 45000.00000 0 461998.166 17034699.825 -18991943.714 10 0 59421 45900.00000 0 -531095.777 19020373.284 -17000482.263 10 0 59421 46800.00000 0 -1266588.269 20831916.397 -14679128.717 10 0 59421 47700.00000 0 -1760200.744 22409052.066 -12072897.689 10 0 59421 48600.00000 0 -2038818.191 23697836.352 -9232339.430 10 0 59421 49500.00000 0 -2139106.987 24652854.117 -6212563.707 10 0 59421 50400.00000 0 -2105718.291 25239077.954 -3072173.928 10 0 59421 51300.00000 0 -1989153.236 25433312.383 127868.154 10 0 59421 52200.00000 0 -1843380.499 25225162.338 3325425.245 10 0 59421 53100.00000 0 -1723307.371 24617484.852 6458391.636 10 0 59421 54000.00000 0 -1682211.876 23626304.430 9465901.008 10 0 59421 54900.00000 0 -1769245.161 22280195.140 12289511.122 10 0 59421 55800.00000 0 -2027110.603 20619154.863 14874341.900 10 0 59421 56700.00000 0 -2490018.587 18693018.500 17170144.501 10 0 59421 57600.00000 0 -3182004.401 16559476.271 19132280.375 10 0 59421 58500.00000 0 -4115681.294 14281779.820 20722591.062 10 0 59421 59400.00000 0 -5291482.447 11926231.828 21910141.819 10 0 59421 60300.00000 0 -6697425.019 9559563.726 22671824.697 10 0 59421 61200.00000 0 -8309407.436 7246310.797 22992809.368 10 0 59421 62100.00000 0 -10092028.659 5046293.820 22866833.063 10 0 59421 63000.00000 0 -11999896.339 3012311.806 22296323.988 10 0 59421 63900.00000 0 -13979370.000 1188141.608 21292355.757 10 0 59421 64800.00000 0 -15970667.229 -393072.887 19874433.597 10 0 59421 65700.00000 0 -17910245.404 -1709975.514 18070116.211 10 0 59421 66600.00000 0 -19733359.698 -2753649.208 15914480.439 10 0 59421 67500.00000 0 -21376690.526 -3527737.821 13449438.851 10 0 59421 68400.00000 0 -22780930.459 -4048034.503 10722923.342 10 0 59421 69300.00000 0 -23893221.981 -4341555.153 7787950.626 10 0 59421 70200.00000 0 -24669343.708 -4445137.324 4701587.900 10 0 59421 71100.00000 0 -25075553.024 -4403624.953 1523839.060 10 0 59421 72000.00000 0 -25090007.564 -4267716.862 -1683526.318 10 0 59421 72900.00000 0 -24703705.707 -4091571.173 -4858177.931 10 0 59421 73800.00000 0 -23920906.592 -3930268.098 -7938439.638 10 0 59421 74700.00000 0 -22759012.120 -3837239.351 -10864490.004 10 0 59421 75600.00000 0 -21247916.181 -3861773.751 -13579524.817 10 0 59421 76500.00000 0 -19428848.648 -4046705.074 -16030858.798 10 0 59421 77400.00000 0 -17352762.905 -4426380.293 -18170945.081 10 0 59421 78300.00000 0 -15078334.567 -5024994.262 -19958293.034 10 0 59421 79200.00000 0 -12669655.014 -5855361.316 -21358267.179 10 0 59421 80100.00000 0 -10193715.860 -6918175.742 -22343752.376 10 0 59421 81000.00000 0 -7717788.716 -8201792.551 -22895673.223 10 0 59421 81900.00000 0 -5306808.579 -9682538.261 -23003358.395 10 0 59421 82800.00000 0 -3020868.826 -11325539.270 -22664743.472 10 0 59421 83700.00000 0 -912930.795 -13086033.995 -21886408.824 10 0 59421 84600.00000 0 973158.114 -14911114.853 -20683451.980 10 0 59421 85500.00000 0 2604256.585 -16741828.242 -19079196.879 10 0 59422 0.00000 0 3959066.890 -18515545.838 -17104745.346 10 0 59422 900.00000 0 5028771.422 -20168508.984 -14798378.603 10 0 59422 1800.00000 0 5817143.214 -21638440.730 -12204820.545 10 0 59422 2700.00000 0 6340125.900 -22867116.238 -9374375.331 10 0 59422 3600.00000 0 6624902.756 -23802785.076 -6361956.131 10 0 59422 4500.00000 0 6708493.690 -24402343.071 -3226023.086 10 0 59422 5400.00000 0 6635940.332 -24633162.837 -27450.851 10 0 59422 6300.00000 0 6458156.154 -24474505.513 3171652.454 10 0 59422 7200.00000 0 6229532.924 -23918453.799 6309151.760 10 0 59422 8100.00000 0 6005405.172 -22970326.413 9324093.365 10 0 59422 9000.00000 0 5839480.482 -21648555.690 12157891.290 10 0 59422 9900.00000 0 5781344.883 -19984032.798 14755468.103 10 0 59422 10800.00000 0 5874149.542 -18018947.228 17066327.812 10 0 59422 11700.00000 0 6152577.302 -15805168.582 19045539.700 10 0 59422 12600.00000 0 6641175.763 -13402237.834 20654613.770 10 0 59422 13500.00000 0 7353128.156 -10875051.556 21862250.816 10 0 59422 14400.00000 0 8289514.783 -8291335.306 22644952.568 10 0 59422 15300.00000 0 9439097.115 -5719011.236 22987480.100 10 0 59422 16200.00000 0 10778634.643 -3223569.167 22883151.723 10 0 59422 17100.00000 0 12273722.205 -865550.127 22333974.554 10 0 59422 18000.00000 0 13880113.543 1301753.293 21350607.161 10 0 59422 18900.00000 0 15545476.382 3234284.639 19952153.863 10 0 59422 19800.00000 0 17211506.125 4898817.271 18165794.440 10 0 59422 20700.00000 0 18816309.911 6274088.327 16026256.203 10 0 59422 21600.00000 0 20296961.314 7351426.644 13575138.438 10 0 59422 22500.00000 0 21592118.528 8134849.535 10860102.152 10 0 59422 23400.00000 0 22644595.893 8640625.575 7933940.874 10 0 59422 24300.00000 0 23403780.478 8896323.161 4853550.706 10 0 59422 25200.00000 0 23827791.780 8939386.305 1678819.892 10 0 59422 26100.00000 0 23885293.275 8815299.066 -1528539.960 10 0 59422 27000.00000 0 23556879.342 8575417.492 -4706197.711 10 0 59422 27900.00000 0 22835978.939 8274561.884 -7792417.639 10 0 59422 28800.00000 0 21729237.882 7968472.245 -10727261.227 10 0 59422 29700.00000 0 20256363.636 7711235.378 -13453752.043 10 0 59422 30600.00000 0 18449439.113 7552793.043 -15918980.922 10 0 59422 31500.00000 0 16351734.309 7536636.868 -18075129.910 10 0 59422 32400.00000 0 14016065.491 7697787.568 -19880395.483 10 0 59422 33300.00000 0 11502770.350 8061143.793 -21299793.624 10 0 59422 34200.00000 0 8877383.361 8640270.170 -22305831.844 10 0 59422 35100.00000 0 6208107.682 9436675.589 -22879035.911 10 0 59422 36000.00000 0 3563188.019 10439612.215 -23008321.885 10 0 59422 36900.00000 0 1008292.801 11626403.927 -22691206.870 10 0 59422 37800.00000 0 -1395986.720 12963290.928 -21933854.903 10 0 59422 38700.00000 0 -3596417.856 14406755.770 -20750957.276 10 0 59422 39600.00000 0 -5549094.776 15905276.062 -19165449.543 10 0 59422 40500.00000 0 -7221013.218 17401431.308 -17208070.392 10 0 59422 41400.00000 0 -8591187.360 18834276.534 -14916770.324 10 0 59422 42300.00000 0 -9651263.335 20141883.966 -12335981.019 10 0 59422 43200.00000 0 -10405604.887 21263946.803 -9515758.799 10 0 59422 44100.00000 0 -10870848.480 22144336.191 -6510818.144 10 0 59422 45000.00000 0 -11074947.266 22733504.091 -3379473.564 10 0 59422 45900.00000 0 -11055744.802 22990630.880 -182510.008 10 0 59422 46800.00000 0 -10859139.185 22885426.915 3017996.384 10 0 59422 47700.00000 0 -10536915.520 22399511.619 6159884.126 10 0 59422 48600.00000 0 -10144338.793 21527311.202 9182115.168 10 0 59422 49500.00000 0 -9737609.380 20276436.345 12025962.841 10 0 59422 50400.00000 0 -9371289.228 18667522.941 14636155.390 10 0 59422 51300.00000 0 -9095808.099 16733541.636 16961952.602 10 0 59422 52200.00000 0 -8955155.826 14518604.100 18958134.350 10 0 59422 53100.00000 0 -8984858.621 12076315.232 20585881.638 10 0 59422 54000.00000 0 -9210325.513 9467739.374 21813533.021 10 0 59422 54900.00000 0 -9645635.284 6759064.735 22617201.768 10 0 59422 55800.00000 0 -10292815.717 4019062.855 22981241.785 10 0 59422 56700.00000 0 -11141646.196 1316448.351 22898553.392 10 0 59422 57600.00000 0 -12169992.702 -1282751.755 22370722.998 10 0 59422 58500.00000 0 -13344661.796 -3717710.112 21407993.920 10 0 59422 59400.00000 0 -14622738.335 -5935088.626 20029068.771 10 0 59422 60300.00000 0 -15953351.254 -7891010.932 18260747.011 10 0 59422 61200.00000 0 -17279793.591 -9552636.216 16137404.471 10 0 59422 62100.00000 0 -18541907.847 -10899269.662 13700324.716 10 0 59422 63000.00000 0 -19678636.436 -11922964.148 10996895.005 10 0 59422 63900.00000 0 -20630629.737 -12628589.085 8079682.527 10 0 59422 64800.00000 0 -21342801.665 -13033364.843 5005408.917 10 0 59422 65700.00000 0 -21766724.711 -13165883.679 1833843.278 10 0 59422 66600.00000 0 -21862763.070 -13064659.756 -1373364.254 10 0 59422 67500.00000 0 -21601853.497 -12776270.803 -4553885.171 10 0 59422 68400.00000 0 -20966858.402 -12353171.129 -7645927.546 10 0 59422 69300.00000 0 -19953433.873 -11851269.508 -10589438.999 10 0 59422 70200.00000 0 -18570375.792 -11327375.242 -13327273.889 10 0 59422 71100.00000 0 -16839429.247 -10836620.994 -15806301.896 10 0 59422 72000.00000 0 -14794569.071 -10429971.680 -17978436.366 10 0 59422 72900.00000 0 -12480781.414 -10151924.744 -19801562.815 10 0 59422 73800.00000 0 -9952396.929 -10038498.777 -21240350.105 10 0 59422 74700.00000 0 -7271044.825 -10115595.039 -22266929.212 10 0 59422 75600.00000 0 -4503312.368 -10397800.599 -22861427.270 10 0 59422 76500.00000 0 -1718206.419 -10887683.216 -23012347.305 10 0 59422 77400.00000 0 1015478.357 -11575607.474 -22716786.969 10 0 59422 78300.00000 0 3631776.520 -12440079.951 -21980492.495 10 0 59422 79200.00000 0 6070046.677 -13448609.216 -20817747.074 10 0 59422 80100.00000 0 8277241.725 -14559045.029 -19251095.697 10 0 59422 81000.00000 0 10209861.515 -15721341.149 -17310911.536 10 0 59422 81900.00000 0 11835507.960 -16879668.478 -15034811.662 10 0 59422 82800.00000 0 13133978.858 -17974790.477 -12466932.826 10 0 59422 83700.00000 0 14097855.874 -18946601.643 -9657080.633 10 0 59422 84600.00000 0 14732562.982 -19736722.722 -6659767.920 10 0 59422 85500.00000 0 15055893.649 -20291043.636 -3533160.576 10 0 59423 0.00000 0 15097027.331 -20562107.000 -337950.951 10 0 59423 900.00000 0 14895077.178 -20511231.099 2863819.803 10 0 59423 1800.00000 0 14497230.694 -20110283.328 6009966.435 10 0 59423 2700.00000 0 13956562.188 -19343026.610 9039369.032 10 0 59423 3600.00000 0 13329609.873 -18205983.122 11893162.448 10 0 59423 4500.00000 0 12673820.322 -16708776.411 14515882.481 10 0 59423 5400.00000 0 12044968.705 -14873936.967 16856546.203 10 0 59423 6300.00000 0 11494664.135 -12736178.011 18869645.202 10 0 59423 7200.00000 0 11068045.855 -10341170.794 20516032.206 10 0 59423 8100.00000 0 10801767.860 -7743869.543 21763683.873 10 0 59423 9000.00000 0 10722357.298 -5006455.054 22588324.956 10 0 59423 9900.00000 0 10845016.199 -2195981.903 22973901.777 10 0 59423 10800.00000 0 11172917.380 618173.507 22912895.915 10 0 59423 11700.00000 0 11697024.512 3366958.550 22406472.032 10 0 59423 12600.00000 0 12396444.311 5984274.121 21464456.909 10 0 59423 13500.00000 0 13239296.364 8409479.759 20105149.964 10 0 59423 14400.00000 0 14184064.312 10589670.548 18354968.701 10 0 59423 15300.00000 0 15181371.685 12481631.525 16247935.710 10 0 59423 16200.00000 0 16176107.779 14053388.888 13825016.971 10 0 59423 17100.00000 0 17109813.927 15285294.092 11133324.060 10 0 59423 18000.00000 0 17923229.430 16170596.358 8225195.795 10 0 59423 18900.00000 0 18558889.419 16715480.783 5157177.252 10 0 59423 19800.00000 0 18963664.613 16938571.629 1988916.240 10 0 59423 20700.00000 0 19091135.233 16869922.969 -1218000.748 10 0 59423 21600.00000 0 18903698.342 16549540.537 -4401249.996 10 0 59423 22500.00000 0 18374319.094 16025498.385 -7498985.456 10 0 59423 23400.00000 0 17487851.556 15351731.000 -10451042.839 10 0 59423 24300.00000 0 16241872.962 14585595.071 -13200109.098 10 0 59423 25200.00000 0 14646995.856 13785304.611 -15692834.369 10 0 59423 26100.00000 0 12726644.624 13007348.136 -17880864.716 10 0 59423 27000.00000 0 10516305.382 12303997.051 -19721775.941 10 0 59423 27900.00000 0 8062280.083 11721010.158 -21179890.880 10 0 59423 28800.00000 0 5419996.383 11295630.638 -22226964.945 10 0 59423 29700.00000 0 2651943.038 11054959.340 -22842727.472 10 0 59423 30600.00000 0 -174684.160 11014772.203 -23015269.140 10 0 59423 31500.00000 0 -2990528.895 11178831.048 -22741268.615 10 0 59423 32400.00000 0 -5726708.740 11538716.287 -22026054.545 10 0 59423 33300.00000 0 -8317429.312 12074188.378 -20883501.897 10 0 59423 34200.00000 0 -10702470.831 12754062.889 -19335764.626 10 0 59423 35100.00000 0 -12829445.075 13537562.631 -17412849.538 10 0 59423 36000.00000 0 -14655730.110 14376090.419 -15152039.070 10 0 59423 36900.00000 0 -16150003.255 15215348.417 -12597173.533 10 0 59423 37800.00000 0 -17293309.345 15997715.330 -9797806.042 10 0 59423 38700.00000 0 -18079620.502 16664781.736 -6808245.825 10 0 59423 39600.00000 0 -18515864.614 17159936.902 -3686508.017 10 0 59423 40500.00000 0 -18621421.960 17430897.979 -493189.974 10 0 59423 41400.00000 0 -18427111.602 17432074.561 2709704.250 10 0 59423 42300.00000 0 -17973710.635 17126668.297 5859968.232 10 0 59423 43200.00000 0 -17310069.074 16488418.133 8896402.775 10 0 59423 44100.00000 0 -16490900.251 15502916.546 11760006.879 10 0 59423 45000.00000 0 -15574340.280 14168440.158 14395126.553 10 0 59423 45900.00000 0 -14619379.899 12496258.433 16750538.788 10 0 59423 46800.00000 0 -13683277.349 10510406.154 18780449.422 10 0 59423 47700.00000 0 -12819061.626 8246927.880 20445385.276 10 0 59423 48600.00000 0 -12073231.600 5752624.759 21712963.217 10 0 59423 49500.00000 0 -11483748.032 3083354.812 22558521.282 10 0 59423 50400.00000 0 -11078403.212 301956.636 22965599.618 10 0 59423 51300.00000 0 -10873636.841 -2524117.947 22926262.037 10 0 59423 52200.00000 0 -10873848.065 -5325364.602 22441251.944 10 0 59423 53100.00000 0 -11071232.603 -8032874.630 21519979.566 10 0 59423 54000.00000 0 -11446151.828 -10580961.090 20180340.593 10 0 59423 54900.00000 0 -11968018.243 -12909654.205 18448369.510 10 0 59423 55800.00000 0 -12596659.998 -14966962.628 16357734.124 10 0 59423 56700.00000 0 -13284106.819 -16710806.938 13949080.829 10 0 59423 57600.00000 0 -13976721.834 -18110545.307 11269243.135 10 0 59423 58500.00000 0 -14617589.028 -19148028.246 8370328.793 10 0 59423 59400.00000 0 -15149055.074 -19818139.139 5308703.386 10 0 59423 60300.00000 0 -15515317.681 -20128798.904 2143890.343 10 0 59423 61200.00000 0 -15664950.416 -20100435.622 -1062590.697 10 0 59423 62100.00000 0 -15553256.725 -19764942.659 -4248424.056 10 0 59423 63000.00000 0 -15144352.970 -19164170.363 -7351712.829 10 0 59423 63900.00000 0 -14412891.951 -18348016.018 -10312184.054 10 0 59423 64800.00000 0 -13345353.570 -17372193.648 -13072360.404 10 0 59423 65700.00000 0 -11940847.709 -16295778.490 -15578675.434 10 0 59423 66600.00000 0 -10211395.033 -15178630.217 -17782510.625 10 0 59423 67500.00000 0 -8181673.362 -14078803.704 -19641134.409 10 0 59423 68400.00000 0 -5888239.648 -13050056.268 -21118525.467 10 0 59423 69300.00000 0 -3378259.441 -12139555.893 -22186064.982 10 0 59423 70200.00000 0 -707796.087 -11385886.173 -22823085.227 10 0 59423 71100.00000 0 2060270.041 -10817431.017 -23017264.669 10 0 59423 72000.00000 0 4858606.654 -10451206.132 -22764862.554 10 0 59423 72900.00000 0 7617981.909 -10292185.579 -22070788.982 10 0 59423 73800.00000 0 10269899.275 -10333150.996 -20948509.289 10 0 59423 74700.00000 0 12749206.600 -10555069.430 -19419784.591 10 0 59423 75600.00000 0 14996572.278 -10927983.632 -17514253.194 10 0 59423 76500.00000 0 16960726.688 -11412377.391 -15268860.447 10 0 59423 77400.00000 0 18600376.534 -11960958.631 -12727147.488 10 0 59423 78300.00000 0 19885713.199 -12520785.382 -9938411.942 10 0 59423 79200.00000 0 20799452.835 -13035645.280 -6956756.193 10 0 59423 80100.00000 0 21337365.218 -13448588.364 -3840041.228 10 0 59423 81000.00000 0 21508269.671 -13704506.236 -648766.001 10 0 59423 81900.00000 0 21333498.620 -13752648.405 2555106.107 10 0 59423 82800.00000 0 20845851.595 -13548969.078 5709350.751 10 0 59423 83700.00000 0 20088083.996 -13058204.503 8752692.479 10 0 59423 84600.00000 0 19110994.501 -12255592.182 11625997.137 10 0 59423 85500.00000 0 17971191.975 -11128158.321 14273423.200 10 0 59424 0.00000 0 16728636.157 -9675517.973 16643509.331 10 0 59424 900.00000 0 15444056.069 -7910152.302 18690177.014 10 0 59424 1800.00000 0 14176354.591 -5857151.255 20373627.964 10 0 59424 2700.00000 0 12980109.447 -3553428.871 21661119.632 10 0 59424 3600.00000 0 11903274.565 -1046444.645 22527603.286 10 0 59424 4500.00000 0 10985179.353 1607518.052 22956212.442 10 0 59424 5400.00000 0 10254909.340 4345445.398 22938592.308 10 0 59424 6300.00000 0 9730136.164 7099972.309 22475063.862 10 0 59424 7200.00000 0 9416445.783 9801949.084 21574619.293 10 0 59424 8100.00000 0 9307192.828 12383089.422 20254748.815 10 0 59424 9000.00000 0 9383886.851 14778590.193 18541101.938 10 0 59424 9900.00000 0 9617093.858 16929614.265 16466989.541 10 0 59424 10800.00000 0 9967814.693 18785533.381 14072736.170 10 0 59424 11700.00000 0 10389281.698 20305837.932 11404894.882 10 0 59424 12600.00000 0 10829097.278 21461634.235 8515339.912 10 0 59424 13500.00000 0 11231623.459 22236667.269 5460254.839 10 0 59424 14400.00000 0 11540520.748 22627826.693 2299036.176 10 0 59424 15300.00000 0 11701328.229 22645115.703 -906865.789 10 0 59424 16200.00000 0 11663975.045 22311085.013 -4095145.838 10 0 59424 17100.00000 0 11385116.289 21659756.787 -7203858.486 10 0 59424 18000.00000 0 10830193.867 20735084.849 -10172624.167 10 0 59424 18900.00000 0 9975134.648 19589017.002 -12943803.110 10 0 59424 19800.00000 0 8807613.561 18279241.853 -15463613.861 10 0 59424 20700.00000 0 7327827.928 16866715.597 -17683174.627 10 0 59424 21600.00000 0 5548749.791 15413073.123 -19559447.538 10 0 59424 22500.00000 0 3495845.004 13978032.262 -21056067.983 10 0 59424 23400.00000 0 1206270.171 12616899.878 -22144043.578 10 0 59424 24300.00000 0 -1272419.865 11378283.856 -22802310.022 10 0 59424 25200.00000 0 -3884001.029 10302106.086 -23018133.835 10 0 59424 26100.00000 0 -6565674.498 9417998.751 -22787354.877 10 0 59424 27000.00000 0 -9250440.714 8744150.109 -22114464.432 10 0 59424 27900.00000 0 -11869655.494 8286647.112 -21012517.602 10 0 59424 28800.00000 0 -14355663.139 8039341.617 -19502881.701 10 0 59424 29700.00000 0 -16644398.331 7984245.097 -17614825.218 10 0 59424 30600.00000 0 -18677849.696 8092434.836 -15384954.796 10 0 59424 31500.00000 0 -20406283.323 8325433.241 -12856510.531 10 0 59424 32400.00000 0 -21790134.377 8637002.122 -10078532.525 10 0 59424 33300.00000 0 -22801488.404 8975276.286 -7104914.185 10 0 59424 34200.00000 0 -23425090.758 9285146.456 -3993360.161 10 0 59424 35100.00000 0 -23658842.214 9510790.760 -804268.780 10 0 59424 36000.00000 0 -23513760.112 9598247.626 2400439.497 10 0 59424 36900.00000 0 -23013406.807 9497920.862 5558524.683 10 0 59424 37800.00000 0 -22192809.542 9166910.408 8608637.391 10 0 59424 38700.00000 0 -21096917.263 8571069.357 11491512.651 10 0 59424 39600.00000 0 -19778659.424 7686699.339 14151123.760 10 0 59424 40500.00000 0 -18296688.572 6501811.490 16535773.431 10 0 59424 41400.00000 0 -16712901.744 5016898.478 18599100.815 10 0 59424 42300.00000 0 -15089845.001 3245183.690 20300984.582 10 0 59424 43200.00000 0 -13488110.127 1212335.615 21608324.523 10 0 59424 44100.00000 0 -11963832.748 -1044342.140 22495686.542 10 0 59424 45000.00000 0 -10566396.717 -3477212.650 22945798.567 10 0 59424 45900.00000 0 -9336440.776 -6030046.233 22949887.851 10 0 59424 46800.00000 0 -8304250.722 -8640128.348 22507853.169 10 0 59424 47700.00000 0 -7488604.061 -11240647.872 21628268.490 10 0 59424 48600.00000 0 -6896115.069 -13763267.065 20328217.952 10 0 59424 49500.00000 0 -6521107.144 -16140766.832 18632965.084 10 0 59424 50400.00000 0 -6346017.142 -18309657.404 16575462.455 10 0 59424 51300.00000 0 -6342313.990 -20212645.960 14195711.012 10 0 59424 52200.00000 0 -6471892.081 -21800858.454 11539981.308 10 0 59424 53100.00000 0 -6688879.959 -23035722.991 8659911.741 10 0 59424 54000.00000 0 -6941787.052 -23890436.251 5611501.360 10 0 59424 54900.00000 0 -7175896.893 -24350951.920 2454017.095 10 0 59424 55800.00000 0 -7335804.751 -24416450.115 -751162.910 10 0 59424 56700.00000 0 -7367991.438 -24099268.762 -3941746.769 10 0 59424 57600.00000 0 -7223323.534 -23424300.572 -7055743.345 10 0 59424 58500.00000 0 -6859373.495 -22427881.801 -10032669.429 10 0 59424 59400.00000 0 -6242460.850 -21156220.395 -12814725.745 10 0 59424 60300.00000 0 -5349327.591 -19663430.367 -15347918.686 10 0 59424 61200.00000 0 -4168376.524 -18009255.661 -17583105.881 10 0 59424 62100.00000 0 -2700419.836 -16256579.491 -19476945.576 10 0 59424 63000.00000 0 -958905.754 -14468823.698 -20992731.926 10 0 59424 63900.00000 0 1030386.837 -12707346.991 -22101100.584 10 0 59424 64800.00000 0 3230173.881 -11028950.464 -22780591.753 10 0 59424 65700.00000 0 5592978.162 -9483593.925 -23018060.571 10 0 59424 66600.00000 0 8062874.113 -8112417.578 -22808927.528 10 0 59424 67500.00000 0 10577593.892 -6946150.588 -22157264.624 10 0 59424 68400.00000 0 13070908.277 -6003971.863 -21075715.806 10 0 59424 69300.00000 0 15475184.463 -5292869.625 -19585253.249 10 0 59424 70200.00000 0 17724015.521 -4807525.514 -17714773.906 10 0 59424 71100.00000 0 19754813.135 -4530727.282 -15500543.619 10 0 59424 72000.00000 0 21511256.398 -4434292.077 -12985498.978 10 0 59424 72900.00000 0 22945495.279 -4480461.067 -10218419.741 10 0 59424 73800.00000 0 24020017.238 -4623706.329 -7252987.190 10 0 59424 74700.00000 0 24709099.144 -4812873.621 -4146746.235 10 0 59424 75600.00000 0 24999783.886 -4993570.326 -959991.015 10 0 59424 76500.00000 0 24892340.677 -5110697.385 2245404.532 10 0 59424 77400.00000 0 24400189.652 -5111017.777 5407188.282 10 0 59424 78300.00000 0 23549293.796 -4945652.326 8463940.207 10 0 59424 79200.00000 0 22377043.636 -4572396.560 11356267.488 10 0 59424 80100.00000 0 20930681.464 -3957759.746 14027960.793 10 0 59424 81000.00000 0 19265331.244 -3078638.902 16427088.954 10 0 59424 81900.00000 0 17441716.890 -1923555.876 18507010.511 10 0 59424 82800.00000 0 15523664.665 -493404.061 20227282.232 10 0 59424 83700.00000 0 13575494.391 1198328.104 21554446.971 10 0 59424 84600.00000 0 11659408.630 3125867.747 22462685.585 10 0 59424 85500.00000 0 9832989.053 5251990.620 22934320.306 99